Portada
METAR-TAF:

METAR-TAF

Aeroports :

Cruzeiro do Sul, Acre, Brasil

latitud: 07-38S, longitud: 072-40W, altitud: 170 m

Observació

L'informe es va fer fa 3 hores i 33 minuts, a les 22:00 UTC
Vent 1 kt del Nord/Nord-Oest
Temperatura 28°C
Humitat 84%
Pressió 1007 hPa
Visibilitat 10 km o més
Escasses núvols a una alçada de 2500 ft
Escasses núvols a una alçada de 3000 ft, Cumulus congestus.
Cel ennuvolat a una alçada de 10000 ft

METAR: SBCZ 052200Z 34001KT 9999 FEW025 FEW030TCU BKN100 28/25 Q1007

Hora: 20:33 (01:33 UTC)


TAF: manca

Observacions i pronòstics meteorològics de més de 4000 aeroports (METAR i TAF).

Les estacions disponibles són els punts grocs i vermells al mapa.

Posi el ratolí al punt desitjat per veure el nom de l'estació.

Feu clic per veure les observacions i els pronòstics meteorològics.

Per canviar el mapa: feu clic els botons verds amb una creu de color negre per apropar; al botó verd amb un guió per allunyar la imatge; o en les fletxes verdes per a mapes adjacents.


METAR-TAF: